Regional Weather Roundup
Issued by NWS Wakefield, VA

Home | Current Version | Previous Version | Text Only | Print | Product List | Glossary On
Versions: 1 2 3 4 5 6 7 8 9 10 11 12 13 14 15 16 17 18 19 20 21 22 23 24 25 26 27 28 29 30
000
ASUS41 KAKQ 270515
RWRAKQ

REGIONAL WEATHER ROUNDUP
NATIONAL WEATHER SERVICE WAKEFIELD VA
100 AM EDT FRI APR 27 2018

Note: "fair" indicates few or no clouds below 12,000 feet with no
significant weather and/or obstructions to visibility. * = Denotes
station may not report precipitation (e.g., rain,snow,etc.),
thunder or fog.

VAZ042-051-052>054-056-270600-
NORTHERN VIRGINIA

CITY           SKY/WX    TMP DP  RH WIND       PRES   REMARKS
WASH NATIONAL  CLOUDY    60  46  59 NE7       29.83F
DULLES         CLOUDY    59  42  53 NE5       29.82F
FORT BELVOIR   FAIR      57  46  66 CALM      29.81F
QUANTICO       MOCLDY    60  51  72 E6        29.82F
FREDERICKSBRG* FAIR      60  51  72 E3        29.79F
STAFFORD*      MOCLDY    59  50  72 NE5       29.84F
WARRENTON      FAIR      60  41  49 NE5       29.80F
CULPEPER*      FAIR      60  41  51 N5        29.82F
MANASSAS*      CLOUDY    60  44  55 NE3       29.81F
LEESBURG*      MOCLDY    61  41  48 NE3       29.84F
WINCHESTER     CLOUDY    55  37  50 CALM      29.84F
FRONT ROYAL*   CLOUDY    55  45  67 CALM      29.82F
LURAY*         CLOUDY    59  37  44 N7        29.80F
$$

VAZ048-049-060>072-079>083-270600-
CENTRAL AND SOUTH CENTRAL VIRGINIA

CITY           SKY/WX    TMP DP  RH WIND       PRES   REMARKS
RICHMOND       CLOUDY    60  55  83 E10       29.76F
CHESTERFIELD*  TSTM      60  56  86 W3        29.80S FOG
PETERSBURG*    CLOUDY    61  56  82 SE8       29.77F
HANOVER        LGT RAIN  60  53  77 CALM      29.80F
TAPPAHANNOCK*  FAIR      58  47  66 E5        29.81F
QUINTON*       MOCLDY    58  49  72 E7G18     29.79F
CHARLOTTSVILLE LGT RAIN  60  47  61 CALM      29.79F
GORDONSVILLE*  CLOUDY    59  53  79 CALM      29.79S
ORANGE*        CLOUDY    57  50  77 CALM      29.80S
LOUISA*        LGT RAIN  61  52  71 E5        29.82F
BUMPASS*       NOT AVBL
FARMVILLE*     CLOUDY   N/A N/A N/A N5        29.76F
CREWE*         CLOUDY    60  60 100 CALM      29.77F
FORT PICKETT*  CLOUDY    60  60 100 SE7G20    29.77F
CHASE CITY*    CLOUDY    58  58 100 W10       29.80R
CLARKSVILLE*   CLOUDY    59  59 100 W7G17     29.81R
SOUTH HILL*    CLOUDY    62  61  99 SE5       29.82F
LAWRENCEVILLE* CLOUDY    62  59  89 SE3       29.77F
EMPORIA*       CLOUDY    61  57  88 E8        29.80S
$$

VAZ088>098-270600-
SOUTHEAST VIRGINIA

CITY           SKY/WX    TMP DP  RH WIND       PRES   REMARKS
NORFOLK        LGT RAIN  58  53  84 SE8       29.81F
VIRGINIA BEACH LGT RAIN  56  54  93 SE6       29.82F
NORFOLK NAVAL  MOCLDY    59  51  75 SE8       29.82F
WEST POINT*    CLOUDY    58  49  72 E7        29.81F
SALUDA*        CLOUDY    58  48  69 SE5       29.82F
NEWPORT NEWS   CLOUDY    56  52  86 MISG      29.81F
LANGLEY AFB    CLOUDY    58  51  78 SE5       29.82F
FORT EUSTIS    DRIZZLE   60  53  80 SE8       29.78F
WILLIAMSBURG*  MOCLDY    57  54  88 CALM      29.81F
HR EXEC AP*    FAIR      57  51  80 SE6       29.82F
FRANKLIN*      FAIR      58  55  89 SE3       29.81F
US460-WAKEFLD  FAIR      59  55  87 E6        29.79F
$$

VAZ020-022-025-037-045-270600-
WEST CENTRAL AND SOUTHWEST VIRGINIA

CITY           SKY/WX    TMP DP  RH WIND       PRES   REMARKS
STAUNTON*      LGT RAIN  56  49  76 CALM      29.82S
WAYNESBORO*    CLOUDY    57  46  67 W5        29.82R
HOT SPRINGS VA DRIZZLE   49  45  88 SE7       29.84F
LYNCHBURG      HVY RAIN  55  54  96 NW6       29.82R FOG
DANVILLE       LGT RAIN  57  57 100 CALM      29.81S
SOUTH BOSTON*  CLOUDY    58  57  96 W6        29.81F
MARTINSVILLE   CLOUDY    55  54  98 CALM      29.84F FOG
ROANOKE        CLOUDY    54  53  97 W3        29.83F
BLACKSBURG     DRIZZLE   52  52  99 CALM      29.84F
DUBLIN*        LGT RAIN  54  53  98 CALM      29.82F
MARION*        LGT RAIN  52  51  97 CALM      29.84S
HILLSVILLE*    LGT RAIN  51  50  97 CALM      29.81S
RICHLANDS*     CLOUDY    47  39  74 CALM      29.83F
WISE*          DRIZZLE   46  46 100 CALM      29.85F
ABINGDON*      RAIN      52  51  97 CALM      29.82F
$$

MDZ021>025-VAZ099-100-270600-
SOUTHERN MARYLAND AND THE DELMARVA PENINSULA

CITY           SKY/WX    TMP DP  RH WIND       PRES   REMARKS
PATUXENT RIVER FAIR      58  52  80 SE7       29.83F
BAY BRIDGE APT FAIR      59  45  58 E6        29.85F
LEONARDTOWN    FAIR      55  45  67 E6        29.84F
DOVER          MOCLDY    55  46  70 SE3       29.86F
GEORGETOWN     FAIR      55  47  74 CALM      29.88F
EASTON         NOT AVBL
CAMBRIDGE      CLEAR     55  48  76 MISG      29.85F
SALISBURY      FAIR      51  46  83 CALM      29.86F
TANGIER        CLOUDY    57  48  72 SE7       29.83F
OCEAN CITY     FAIR      53  47  79 S3        29.88F
WALLOPS ISLAND MOCLDY    55  48  77 SE7       29.87F
ACCOMACK*      MOCLDY    57  43  60 SE7       29.85F
$$

NCZ012>017-030>032-270600-
NORTH CENTRAL AND EASTERN NORTH CAROLINA

CITY           SKY/WX    TMP DP  RH WIND       PRES   REMARKS
ROANOKE RAPIDS CLOUDY    63  61  94 S5        29.79S
RALEIGH        LGT RAIN  59  59 100 NW5       29.81F
ELIZABETH CITY FAIR      61  61 100 S3        29.83F
AHOSKIE*       FAIR      60  60 100 SE3       29.80F
EDENTON*       FAIR      63  61  94 CALM      29.83F
CURRITUCK*     NOT AVBL
KILL DEVIL HLS FAIR      60  59  96 CALM      29.83S
MANTEO         FAIR      64  61  89 S7        29.84F
CAPE HATTERAS  FAIR      67  65  93 S3        29.84F
TARBORO*       NOT AVBL
GOLDSBORO      MOCLDY    63  56  78 S3        29.78F
WASHINGTON     FAIR      64  59  84 CALM      29.82S
GREENVILLE     FAIR      64  57  77 S7        29.83F
NEW BERN       FAIR      59  58  96 S6        29.83F
WILMINGTON     FAIR      63  56  78 SW6       29.83F
$$

VAZ048-270600-
ELSEWHERE

CITY           SKY/WX    TMP DP  RH WIND       PRES   REMARKS
HARRISBURG PA  CLOUDY    54  46  74 CALM      29.84F
BALTIMORE      CLOUDY    59  45  59 SE3       29.84F
ANNAPOLIS      FAIR      61  50  67 E7        29.84F
ANDREWS AFB    FAIR      56  45  65 E6        29.82F
PHILADELPHIA   CLOUDY    56  45  66 CALM      29.87F
HENDERSON NC   LGT RAIN  57  55  94 W10       29.82R
GREENSBORO     FAIR      55  55 100 SE3       29.80F
ROCKY MOUNT    MOCLDY    63  56  78 S5        29.80F
$$

VAZ100-270600-
MARINE

STATION/POSITION TIME  TEMP    WIND        PRES    WAVE   SWELL
                       AIR SEA DIR/SP/G            HT/PER HT/PER
                 (UTC) (F)     (DEG/KT/KT) (MB)    (FT/S) (FT/S)
BRANDYWINE LGT   0442   59     200/ 11/ 11 1012.0F
CAPE MAY NJ      0448   55 54  170/  4/  5 1011.1F
LEWES DE         0442   57 56  170/  3/  4 1011.5F
15NM E FENWICK I 0450   51 51  170/  6/  6 1012.4F   5/ 9   5/ 9
OCEAN-CITY-INLET 0442   52 54  170/  3/  4 1012.3F
WACHAPREAGUE VA  0442   56 63  120/  2/  3 1011.1F
THOMAS POINT MD  0500   59 55  100/  8/  8 1011.5F
GOOSES REEF MD   0500   57     130/  6/  6 1010.7
COVE POINT MD    0442   56     160/ 10/ 11 1011.0F
SOLOMONS ISLAND  0442   56 55  100/  7/  8 1009.9F
BISHOPS HEAD MD  0442   58 61  110/ 10/ 10 1010.9F
PINEY POINT MD   0442          130/ 11/ 12   N/A
POTOMAC MD       0500   56 55  130/  8/ 10 1011.3    1
CAMBRIDGE MD     0442   58 59              1011.8F
LEWISETTA VA     0442   59 59  160/  3/  5 1010.0F
RAPPAHANNOCK LGT 0442          110/ 10/ 12 1011.0F
YORK RVR RNG VA  0442   57     150/ 10/ 12 1010.5F
YORKTOWN VA      0442   58 58  130/  6/  9 1009.3F
DOMINION TERM VA 0442   60     100/  7/  9 1009.8F
KIPTOPEKE VA     0442      57  110/ 11/ 15   N/A
CAPE HENRY VA    0442   55     130/ 11/ 13   N/A
WILLOUBY STN VA  0442   59     120/  6/  7 1009.7F
S CRANEY ISL VA  0442   60     120/  6/  7 1009.7F
CAPE HENRY BUOY  0500      54                N/A     3/10   2/11
1ST LANDING BUOY 0500   55 55  140/ 12/ 14 1009.9    1/ 8
64NM E OF VA BCH 0450   54 53  100/  8/ 10 1011.7F   6/ 8   5/ 8
DUCK PIER NC     0442   57 53  140/ 10/ 11 1009.7F
44100 DUCK FRF   0445      56                N/A     4/ 9   2/11
44056 DUCK FRF   0500      55                N/A     4/10   2/11
OREGON INLET NC  0442   60 62  110/  5/  6 1010.3F
HATTERAS NC      0442   67 69  170/  4/  5 1010.5F
DIAMOND SHLS NC  0500   73 71  190/ 12/ 23 1010.9
CAPE LOOKOUT NC  0500          160/  3/  3 1010.5F
$$




USA.gov is the U.S. government's official web portal to all federal, state and local government web resources and services.